QPF
0.00 0.00 0.00 0.00 0.00 0.00 0.00 0.00 0.00 0.00 0.00 0.00 0.00 0.00 0.00 0.00 0.00 0.00 0.00 0.00 0.00 0.00 0.00 0.00 0.00 0.00 0.00 0.00 0.00 0.00 0.00 0.00 0.00 0.00 0.00 0.00 0.00 0.00 0.00 0.00 0.00 0.00 0.00 0.00 0.00 0.00 0.00 0.00 0.00
0.00 0.00 0.00 0.00 0.00 0.00 0.00 0.00 0.00 0.00 0.00 0.00 0.00 0.00 0.00 0.00 0.00 0.00 0.00 0.00 0.00 0.00 0.00 0.00 0.00 0.00 0.00 0.00 0.00 0.00 0.00 0.00 0.00 0.00 0.00 0.00 0.00 0.00 0.00 0.00 0.00 0.00 0.00 0.00 0.00 0.00 0.00 0.00 0.00
0.00 0.00 0.00 0.00 0.00 0.00 0.00 0.00 0.00 0.00 0.00 0.00 0.00 0.00 0.00 0.00 0.00 0.00 0.00 0.00 0.00 0.00 0.00 0.00 0.00 0.00 0.00 0.00 0.00 0.00 0.00 0.00 0.00 0.00 0.00 0.00 0.00 0.00 0.00 0.00 0.00 0.00 0.00 0.00 0.00 0.00 0.00 0.00 0.00
0.00 0.00 0.00 0.00 0.00 0.00 0.00 0.00 0.00 0.00 0.00 0.00 0.00 0.00 0.00 0.00 0.00 0.00 0.00 0.00 0.00 0.00 0.00 0.00 0.00 0.00 0.00 0.00 0.00 0.00 0.00 0.00 0.00 0.00 0.00 0.00 0.00 0.00 0.00 0.00 0.00 0.00 0.00 0.00 0.00 0.00 0.00 0.00 0.00
0.00 0.00 0.00 0.00 0.00 0.00 0.00 0.00 0.00 0.00 0.00 0.00 0.00 0.00 0.00 0.00 0.00 0.00 0.00 0.00 0.00 0.00 0.00 0.00 0.00 0.00 0.00 0.00 0.00 0.00 0.00 0.00 0.00 0.00 0.00 0.00 0.00 0.00 0.00 0.00 0.00 0.00 0.00 0.00 0.00 0.00 0.00 0.00 0.00
0.00 0.00 0.00 0.00 0.00 0.00 0.00 0.00 0.00 0.00 0.00 0.00 0.00 0.00 0.00 0.00 0.00 0.00 0.00 0.00 0.00 0.00 0.00 0.00 0.00 0.00 0.00 0.00 0.00 0.00 0.00 0.00 0.00 0.00 0.00 0.00 0.00 0.00 0.00 0.00 0.00 0.00 0.00 0.00 0.00 0.00 0.00 0.00 0.00
0.00 0.00 0.00 0.00 0.00 0.00 0.00 0.00 0.00 0.00 0.00 0.00 0.00 0.00 0.00 0.00 0.00 0.00 0.00 0.00 0.00 0.00 0.00 0.00 0.00 0.00 0.00 0.00 0.00 0.00 0.00 0.00 0.00 0.00 0.00 0.00 0.00 0.00 0.00 0.00 0.01 0.00 0.00 0.00 0.00 0.00 0.00 0.00 0.00
0.00 0.00 0.00 0.00 0.00 0.00 0.00 0.00 0.00 0.00 0.00 0.00 0.00 0.00 0.00 0.00 0.00 0.00 0.00 0.00 0.00 0.00 0.00 0.00 0.00 0.00 0.00 0.00 0.00 0.00 0.00 0.00 0.00 0.00 0.00 0.00 0.00 0.00 0.01 0.00 0.00 0.01 0.00 0.00 0.00 0.00 0.00 0.00 0.00
0.00 0.00 0.00 0.00 0.00 0.00 0.00 0.00 0.00 0.00 0.00 0.00 0.00 0.00 0.00 0.00 0.00 0.00 0.00 0.00 0.00 0.00 0.00 0.00 0.00 0.00 0.00 0.00 0.00 0.00 0.00 0.00 0.00 0.00 0.00 0.00 0.00 0.00 0.00 0.00 0.00 0.00 0.00 0.00 0.00 0.00 0.00 0.00 0.00
0.00 0.00 0.00 0.00 0.00 0.00 0.00 0.00 0.00 0.00 0.00 0.00 0.00 0.00 0.00 0.00 0.00 0.00 0.00 0.00 0.00 0.00 0.00 0.01 0.00 0.00 0.00 0.00 0.00 0.00 0.00 0.00 0.00 0.00 0.00 0.00 0.00 0.00 0.00 0.00 0.00 0.00 0.01 0.00 0.00 0.00 0.00 0.00 0.00
0.00 0.00 0.00 0.00 0.00 0.00 0.00 0.00 0.00 0.00 0.00 0.00 0.00 0.00 0.00 0.00 0.00 0.00 0.00 0.00 0.00 0.00 0.00 0.00 0.00 0.00 0.00 0.00 0.00 0.00 0.00 0.00 0.00 0.00 0.00 0.00 0.00 0.00 0.00 0.00 0.00 0.00 0.00 0.00 0.00 0.00 0.00 0.00 0.00
0.00 0.00 0.00 0.00 0.00 0.00 0.00 0.00 0.00 0.00 0.00 0.00 0.00 0.00 0.00 0.00 0.00 0.00 0.00 0.00 0.00 0.00 0.00 0.00 0.00 0.00 0.00 0.00 0.00 0.00 0.00 0.00 0.00 0.00 0.00 0.00 0.00 0.00 0.00 0.00 0.00 0.00 0.00 0.00 0.00 0.00 0.00 0.00 0.00
0.00 0.00 0.00 0.00 0.00 0.00 0.00 0.00 0.00 0.00 0.00 0.00 0.00 0.00 0.00 0.00 0.00 0.00 0.00 0.00 0.00 0.00 0.00 0.00 0.00 0.00 0.00 0.00 0.00 0.00 0.00 0.00 0.00 0.00 0.00 0.00 0.00 0.00 0.00 0.00 0.00 0.00 0.00 0.00 0.00 0.00 0.00 0.00 0.00
0.00 0.00 0.00 0.00 0.00 0.00 0.00 0.00 0.00 0.00 0.00 0.00 0.00 0.00 0.00 0.00 0.00 0.00 0.00 0.00 0.00 0.00 0.00 0.00 0.00 0.00 0.00 0.00 0.00 0.00 0.00 0.00 0.00 0.00 0.00 0.00 0.00 0.00 0.00 0.00 0.00 0.00 0.00 0.00 0.00 0.00 0.00 0.00 0.00
0.00 0.00 0.00 0.00 0.00 0.00 0.00 0.00 0.00 0.00 0.00 0.00 0.00 0.00 0.00 0.00 0.00 0.00 0.00 0.00 0.00 0.00 0.00 0.00 0.00 0.00 0.00 0.00 0.00 0.00 0.00 0.00 0.00 0.00 0.00 0.00 0.00 0.00 0.00 0.00 0.00 0.00 0.00 0.00 0.00 0.00 0.00 0.00 0.00
0.00 0.00 0.00 0.00 0.00 0.00 0.00 0.00 0.00 0.00 0.00 0.00 0.00 0.00 0.00 0.00 0.00 0.00 0.00 0.00 0.00 0.00 0.00 0.00 0.00 0.00 0.00 0.00 0.00 0.00 0.00 0.00 0.00 0.00 0.00 0.00 0.00 0.00 0.00 0.00 0.00 0.00 0.00 0.00 0.00 0.00 0.00 0.00 0.00
0.00 0.00 0.00 0.00 0.00 0.00 0.00 0.00 0.00 0.00 0.00 0.00 0.00 0.00 0.00 0.00 0.00 0.00 0.00 0.00 0.01 0.00 0.00 0.00 0.00 0.00 0.00 0.00 0.00 0.00 0.00 0.00 0.00 0.00 0.00 0.00 0.00 0.00 0.00 0.00 0.00 0.00 0.00 0.00 0.00 0.00 0.00 0.00 0.00
0.00 0.00 0.00 0.00 0.00 0.00 0.00 0.00 0.00 0.00 0.00 0.00 0.00 0.00 0.00 0.00 0.00 0.00 0.00 0.00 0.01 0.04 0.03 0.03 0.03 0.00 0.00 0.00 0.00 0.02 0.04 0.01 0.01 0.01 0.00 0.00 0.00 0.00 0.00 0.00 0.00 0.00 0.00 0.00 0.00 0.00 0.00 0.00 0.00
0.00 0.00 0.00 0.00 0.00 0.00 0.00 0.00 0.00 0.00 0.00 0.00 0.00 0.00 0.00 0.00 0.00 0.00 0.01 0.00 0.01 0.04 0.03 0.00 0.03 0.01 0.00 0.00 0.00 0.00 0.00 0.01 0.04 0.07 0.07 0.01 0.00 0.00 0.00 0.00 0.00 0.01 0.02 0.01 0.03 0.01 0.03 0.02 0.03
0.00 0.00 0.00 0.00 0.00 0.00 0.00 0.00 0.00 0.01 0.00 0.01 0.01 0.00 0.00 0.00 0.00 0.00 0.00 0.00 0.00 0.00 0.00 0.00 0.01 0.02 0.02 0.02 0.01 0.01 0.00 0.01 0.04 0.05 0.08 0.07 0.01 0.02 0.03 0.05 0.14 0.18 0.19 0.18 0.15 0.14 0.15 0.11 0.05
0.00 0.00 0.00 0.00 0.00 0.00 0.00 0.00 0.00 0.00 0.02 0.05 0.04 0.00 0.00 0.00 0.00 0.00 0.00 0.00 0.00 0.00 0.00 0.00 0.01 0.02 0.02 0.02 0.01 0.01 0.01 0.02 0.01 0.02 0.09 0.13 0.12 0.16 0.15 0.11 0.09 0.08 0.05 0.06 0.07 0.07 0.07 0.08 0.06
0.00 0.00 0.00 0.00 0.00 0.00 0.00 0.00 0.00 0.00 0.01 0.02 0.01 0.00 0.00 0.00 0.00 0.00 0.00 0.00 0.00 0.00 0.00 0.00 0.00 0.00 0.00 0.00 0.01 0.00 0.00 0.02 0.02 0.00 0.01 0.08 0.17 0.24 0.25 0.23 0.21 0.23 0.23 0.21 0.19 0.15 0.13 0.10 0.08
0.00 0.00 0.00 0.00 0.00 0.00 0.00 0.00 0.00 0.00 0.00 0.00 0.00 0.00 0.00 0.00 0.00 0.00 0.00 0.00 0.00 0.00 0.00 0.00 0.00 0.00 0.00 0.00 0.00 0.00 0.00 0.01 0.01 0.00 0.00 0.00 0.02 0.05 0.06 0.07 0.05 0.07 0.14 0.08 0.03 0.02 0.02 0.03 0.04
0.00 0.00 0.00 0.00 0.00 0.00 0.00 0.00 0.00 0.00 0.00 0.00 0.00 0.00 0.00 0.00 0.00 0.01 0.01 0.00 0.00 0.00 0.00 0.00 0.00 0.00 0.00 0.00 0.00 0.00 0.00 0.00 0.00 0.00 0.00 0.00 0.00 0.00 0.00 0.00 0.00 0.00 0.00 0.00 0.00 0.00 0.00 0.00 0.00
0.00 0.00 0.00 0.00 0.00 0.00 0.00 0.00 0.00 0.00 0.00 0.00 0.00 0.00 0.00 0.01 0.02 0.04 0.02 0.00 0.00 0.00 0.00 0.00 0.00 0.00 0.00 0.00 0.00 0.00 0.00 0.00 0.00 0.00 0.00 0.00 0.00 0.00 0.00 0.00 0.00 0.00 0.00 0.00 0.00 0.00 0.00 0.00 0.00
0.00 0.00 0.00 0.00 0.00 0.00 0.00 0.00 0.00 0.00 0.00 0.00 0.00 0.00 0.00 0.01 0.06 0.03 0.02 0.01 0.00 0.00 0.00 0.00 0.00 0.00 0.00 0.00 0.00 0.00 0.00 0.00 0.00 0.00 0.00 0.00 0.00 0.00 0.00 0.00 0.00 0.00 0.00 0.00 0.00 0.00 0.00 0.00 0.00
0.00 0.00 0.00 0.00 0.00 0.00 0.00 0.00 0.00 0.00 0.00 0.00 0.00 0.00 0.00 0.00 0.02 0.03 0.03 0.01 0.00 0.00 0.00 0.00 0.00 0.00 0.00 0.00 0.00 0.00 0.00 0.00 0.00 0.00 0.00 0.00 0.00 0.00 0.00 0.00 0.00 0.00 0.00 0.00 0.00 0.00 0.00 0.00 0.00
0.00 0.00 0.00 0.00 0.00 0.00 0.00 0.00 0.00 0.00 0.00 0.00 0.00 0.00 0.00 0.00 0.01 0.02 0.02 0.01 0.00 0.00 0.00 0.00 0.00 0.00 0.00 0.00 0.00 0.00 0.00 0.00 0.00 0.00 0.00 0.00 0.00 0.00 0.00 0.00 0.00 0.00 0.00 0.00 0.00 0.00 0.00 0.00 0.00
0.00 0.00 0.00 0.00 0.00 0.00 0.00 0.00 0.00 0.00 0.00 0.00 0.00 0.00 0.00 0.00 0.00 0.01 0.01 0.00 0.00 0.00 0.00 0.00 0.00 0.00 0.00 0.00 0.00 0.00 0.00 0.00 0.00 0.00 0.00 0.00 0.00 0.00 0.00 0.00 0.00 0.00 0.00 0.00 0.00 0.00 0.00 0.00 0.00
0.00 0.00 0.00 0.00 0.00 0.00 0.00 0.00 0.00 0.00 0.00 0.00 0.00 0.00 0.00 0.00 0.00 0.01 0.01 0.00 0.00 0.00 0.00 0.00 0.00 0.00 0.00 0.00 0.00 0.00 0.00 0.00 0.00 0.00 0.00 0.00 0.00 0.00 0.00 0.00 0.00 0.00 0.00 0.00 0.00 0.00 0.00 0.00 0.00
MSLP
1011.90 1011.91 1011.69 1011.08 1010.78 1009.91 1008.96 1008.79 1008.82 1008.77 1008.70 1008.69 1008.59 1008.55 1008.61 1009.08 1009.66 1011.51 1012.35 1012.61 1012.86 1013.57 1014.28 1015.25 1015.74 1015.92 1016.14 1016.36 1016.64 1016.76 1017.01 1017.27 1017.53 1017.77 1018.05 1018.31 1018.60 1018.84 1019.02 1019.29 1019.55 1019.72 1019.87 1019.90 1020.08 1020.28 1020.41 1020.59 1020.67
1011.83 1011.79 1011.39 1010.87 1010.10 1009.17 1008.50 1008.51 1008.25 1008.42 1008.67 1008.62 1008.58 1008.45 1008.74 1009.61 1010.82 1011.91 1012.44 1012.90 1012.92 1013.56 1014.40 1015.19 1015.96 1016.17 1016.39 1016.61 1016.75 1017.09 1017.38 1017.69 1017.79 1018.06 1018.27 1018.59 1018.85 1019.15 1019.39 1019.55 1019.78 1019.89 1019.97 1020.24 1020.33 1020.43 1020.66 1020.82 1020.95
1011.76 1011.70 1010.81 1010.53 1009.87 1008.60 1008.31 1008.33 1008.20 1008.41 1008.45 1008.38 1008.31 1008.47 1009.19 1010.60 1011.57 1012.03 1012.36 1012.90 1013.32 1013.90 1014.47 1015.41 1016.03 1016.39 1016.66 1016.91 1017.06 1017.24 1017.50 1017.91 1018.16 1018.32 1018.58 1018.86 1019.14 1019.35 1019.62 1019.85 1019.97 1020.19 1020.25 1020.33 1020.55 1020.69 1020.90 1021.08 1021.27
1011.51 1011.47 1011.75 1010.72 1009.24 1008.76 1008.52 1008.39 1008.30 1008.11 1008.26 1008.41 1008.46 1008.73 1010.29 1011.54 1011.79 1012.29 1012.83 1013.16 1013.68 1014.16 1014.55 1015.59 1016.23 1016.55 1016.81 1017.07 1017.29 1017.56 1017.77 1018.04 1018.45 1018.65 1018.83 1019.10 1019.35 1019.60 1019.82 1020.05 1020.23 1020.23 1020.53 1020.59 1020.71 1020.95 1021.13 1021.39 1021.51
1011.56 1011.19 1010.59 1010.06 1009.32 1008.76 1008.42 1008.48 1008.27 1008.01 1007.99 1008.14 1008.36 1009.19 1010.63 1012.17 1012.52 1012.79 1013.28 1013.55 1013.75 1014.38 1014.83 1015.64 1016.29 1016.71 1016.95 1017.24 1017.46 1017.78 1017.98 1018.24 1018.55 1018.83 1019.18 1019.38 1019.52 1019.85 1020.11 1020.23 1020.43 1020.46 1020.62 1020.88 1020.99 1021.19 1021.40 1021.67 1021.78
1011.08 1011.03 1010.11 1009.17 1008.86 1008.66 1008.05 1007.87 1008.09 1007.93 1007.88 1008.12 1008.40 1009.20 1010.97 1012.50 1012.73 1013.18 1013.38 1013.76 1013.97 1014.62 1015.11 1015.87 1016.39 1016.76 1017.00 1017.32 1017.68 1017.99 1018.28 1018.44 1018.63 1019.04 1019.35 1019.60 1019.83 1020.10 1020.27 1020.49 1020.60 1020.68 1020.87 1021.08 1021.30 1021.44 1021.59 1021.83 1022.02
1010.47 1010.28 1009.39 1009.07 1008.54 1008.34 1007.67 1007.59 1007.44 1007.28 1007.35 1007.53 1007.95 1008.93 1011.03 1012.09 1012.81 1013.35 1013.59 1014.01 1014.35 1014.81 1015.22 1016.00 1016.37 1016.89 1017.28 1017.54 1017.84 1018.12 1018.39 1018.80 1019.03 1019.23 1019.54 1019.81 1020.03 1020.42 1020.64 1020.68 1020.86 1020.83 1021.06 1021.29 1021.50 1021.62 1021.76 1021.79 1021.98
1010.79 1010.24 1009.49 1008.91 1008.26 1007.80 1007.72 1007.56 1007.27 1006.94 1006.68 1007.25 1007.61 1008.47 1009.98 1011.34 1012.66 1013.54 1013.89 1014.27 1014.63 1015.10 1015.32 1015.91 1016.30 1016.65 1017.09 1017.63 1018.02 1018.27 1018.53 1018.92 1019.21 1019.52 1019.73 1019.99 1020.24 1020.45 1020.69 1020.91 1020.99 1021.14 1021.20 1021.40 1021.53 1021.68 1021.81 1021.92 1021.91
1011.15 1010.07 1008.67 1008.30 1008.23 1007.58 1007.76 1007.48 1007.46 1007.04 1006.92 1007.19 1007.77 1008.52 1009.24 1011.09 1012.48 1013.47 1013.93 1014.39 1015.13 1015.48 1015.58 1015.71 1016.06 1016.48 1016.83 1017.24 1017.95 1018.43 1018.69 1019.07 1019.36 1019.59 1020.01 1020.26 1020.01 1020.39 1020.67 1020.72 1021.14 1021.29 1021.48 1021.47 1021.68 1021.80 1021.81 1021.96 1022.07
1010.27 1009.32 1008.51 1008.37 1008.01 1007.64 1007.76 1007.69 1007.44 1007.28 1007.07 1007.53 1008.54 1009.79 1010.48 1011.36 1012.23 1012.97 1013.56 1014.03 1014.91 1015.28 1015.67 1015.80 1016.13 1016.56 1016.95 1017.41 1017.80 1018.13 1018.45 1018.74 1019.08 1019.30 1019.79 1019.84 1020.08 1020.31 1020.46 1020.87 1021.28 1021.44 1021.51 1021.75 1021.80 1021.93 1021.99 1021.95 1021.41
1009.88 1008.68 1008.83 1008.41 1008.25 1008.17 1007.86 1007.63 1007.56 1007.13 1006.88 1007.25 1007.52 1009.53 1010.73 1011.33 1012.26 1012.90 1013.39 1013.83 1014.52 1015.22 1015.84 1016.13 1016.34 1016.84 1016.83 1017.20 1017.64 1018.05 1018.31 1018.75 1019.12 1019.40 1019.69 1019.93 1020.07 1020.35 1020.45 1020.65 1020.79 1021.05 1021.42 1021.11 1021.49 1021.55 1021.44 1021.31 1021.45
1009.67 1009.10 1008.84 1008.26 1008.36 1008.17 1007.74 1007.77 1007.42 1006.91 1006.74 1007.26 1008.28 1008.93 1009.85 1010.88 1011.69 1012.35 1013.16 1013.82 1014.47 1015.10 1015.79 1016.20 1016.46 1016.97 1016.86 1017.21 1017.63 1017.98 1018.33 1018.68 1019.00 1019.29 1019.73 1019.93 1020.13 1020.34 1020.42 1020.41 1020.65 1020.91 1021.04 1021.12 1021.27 1021.05 1021.24 1021.41 1021.57
1009.36 1008.80 1008.41 1008.31 1008.06 1008.06 1007.98 1007.53 1007.56 1006.92 1006.91 1007.48 1008.36 1009.76 1009.91 1010.73 1011.63 1012.52 1013.30 1014.01 1014.56 1014.92 1015.54 1016.39 1016.72 1017.14 1017.18 1017.58 1017.73 1018.08 1018.33 1018.84 1018.96 1019.26 1019.59 1019.73 1019.93 1020.13 1020.27 1020.41 1020.54 1020.68 1020.87 1020.97 1021.14 1021.23 1021.13 1021.20 1021.35
1008.44 1008.22 1007.97 1007.87 1007.71 1007.83 1007.47 1007.14 1007.56 1007.18 1007.35 1007.88 1008.45 1009.41 1010.09 1010.67 1011.71 1012.70 1013.35 1013.88 1014.53 1015.05 1015.50 1016.33 1016.89 1017.17 1017.12 1017.37 1017.79 1018.17 1018.58 1018.86 1019.26 1019.18 1019.38 1019.81 1019.90 1020.07 1020.17 1020.32 1020.40 1020.56 1020.68 1020.72 1020.85 1021.00 1021.14 1021.07 1021.07
1008.04 1007.97 1007.77 1007.31 1007.23 1007.20 1007.12 1007.03 1006.75 1007.21 1007.63 1008.08 1008.95 1009.89 1010.43 1011.15 1012.06 1012.64 1013.15 1013.76 1014.44 1015.08 1015.70 1016.40 1016.83 1017.08 1017.13 1017.38 1017.87 1018.39 1018.59 1018.81 1019.08 1019.19 1019.55 1019.76 1019.95 1020.12 1020.15 1020.11 1020.20 1020.32 1020.47 1020.60 1020.81 1020.90 1021.13 1021.15 1021.12
1007.86 1007.78 1006.95 1005.98 1006.53 1006.65 1006.80 1006.26 1006.97 1007.35 1007.71 1008.36 1009.29 1010.04 1010.65 1011.59 1012.20 1012.81 1013.36 1013.93 1014.52 1014.95 1015.54 1016.19 1016.57 1016.95 1017.14 1017.45 1018.04 1018.39 1018.34 1018.66 1018.85 1019.19 1019.46 1019.72 1019.87 1020.09 1020.22 1020.05 1020.09 1020.30 1020.54 1020.56 1020.62 1020.73 1020.81 1020.91 1020.96
1007.29 1006.61 1006.38 1005.94 1006.36 1006.36 1006.74 1006.51 1007.46 1007.90 1008.22 1008.85 1009.59 1010.26 1011.31 1012.39 1013.23 1013.67 1013.75 1013.85 1014.25 1014.66 1015.28 1015.81 1016.15 1016.55 1016.95 1017.30 1017.92 1018.23 1018.42 1018.52 1018.67 1019.01 1019.29 1019.65 1019.85 1019.98 1020.19 1019.94 1020.02 1020.54 1020.49 1020.49 1020.60 1020.60 1020.96 1020.85 1020.93
1006.20 1006.11 1005.92 1005.67 1006.27 1006.31 1006.64 1007.17 1007.91 1008.31 1008.72 1009.45 1010.23 1011.07 1012.05 1012.96 1013.98 1014.32 1014.40 1014.36 1014.28 1014.74 1015.08 1015.43 1015.92 1016.39 1016.98 1017.41 1017.83 1018.12 1018.35 1018.46 1018.58 1018.76 1019.04 1019.51 1019.54 1019.72 1019.84 1019.71 1019.94 1020.29 1020.20 1020.31 1020.46 1020.62 1020.80 1021.11 1021.22
1005.94 1005.71 1005.56 1005.71 1006.07 1006.21 1006.55 1007.77 1008.71 1009.29 1009.49 1010.06 1010.90 1011.82 1012.67 1013.64 1014.46 1014.83 1014.95 1014.81 1014.66 1014.80 1014.96 1015.33 1015.77 1016.30 1016.85 1017.22 1017.39 1017.81 1017.85 1018.26 1018.45 1018.77 1019.07 1019.32 1019.33 1019.47 1019.58 1019.55 1019.74 1020.07 1020.41 1020.63 1020.79 1020.83 1021.07 1021.23 1021.53
1005.76 1005.45 1005.34 1006.02 1006.40 1006.52 1007.32 1008.46 1009.52 1009.95 1010.19 1010.64 1011.41 1012.07 1012.96 1014.01 1014.68 1015.04 1015.26 1015.22 1015.16 1015.20 1015.31 1015.50 1015.70 1016.28 1016.63 1017.02 1017.39 1017.51 1017.58 1017.73 1018.01 1018.71 1018.92 1019.15 1019.62 1019.61 1019.54 1019.67 1019.89 1020.10 1020.32 1020.50 1020.87 1021.26 1021.85 1021.68 1021.96
1005.30 1005.03 1005.16 1005.59 1006.60 1007.16 1007.45 1008.64 1009.47 1010.47 1010.99 1011.47 1012.13 1012.60 1013.29 1013.94 1014.57 1015.10 1015.39 1015.57 1015.69 1015.82 1015.94 1016.10 1016.37 1016.50 1016.67 1016.87 1017.21 1017.58 1017.97 1018.36 1018.64 1019.12 1019.40 1019.66 1019.80 1019.81 1020.01 1019.77 1020.03 1019.97 1020.11 1020.42 1020.66 1021.15 1020.96 1021.36 1021.99
1004.68 1004.64 1004.98 1005.44 1005.86 1006.22 1007.26 1007.52 1009.06 1009.86 1010.63 1011.28 1011.90 1012.55 1013.13 1014.02 1014.59 1015.05 1015.41 1015.55 1015.78 1016.25 1016.45 1016.49 1016.56 1016.79 1016.85 1016.79 1016.96 1017.21 1017.55 1018.30 1018.94 1019.30 1019.78 1020.16 1020.20 1020.28 1020.22 1020.18 1020.29 1020.32 1020.37 1020.66 1020.91 1020.96 1021.12 1021.13 1021.33
1004.38 1004.52 1004.84 1005.27 1005.61 1005.83 1006.77 1006.84 1007.95 1009.20 1009.60 1010.18 1010.93 1011.90 1012.66 1013.52 1014.39 1014.94 1015.36 1015.73 1016.03 1016.31 1016.48 1016.81 1016.91 1016.99 1017.09 1017.05 1017.09 1017.48 1018.00 1018.69 1019.35 1019.83 1020.25 1020.68 1020.84 1020.92 1020.95 1021.03 1021.12 1020.97 1020.82 1020.79 1021.03 1021.01 1021.10 1021.21 1021.25
1004.62 1004.84 1005.27 1005.71 1005.61 1005.45 1006.49 1006.75 1007.17 1007.74 1007.72 1008.62 1010.09 1011.28 1012.20 1013.33 1014.34 1014.86 1015.45 1016.07 1016.35 1016.59 1016.83 1016.82 1016.94 1017.19 1017.42 1017.50 1017.61 1017.79 1018.31 1018.96 1019.58 1020.08 1020.48 1020.95 1021.33 1021.36 1021.40 1021.45 1021.50 1021.58 1021.58 1021.60 1021.53 1021.32 1021.19 1021.13 1021.09
1004.26 1004.53 1004.93 1005.30 1005.26 1005.77 1006.87 1006.82 1006.32 1006.78 1007.46 1007.81 1008.73 1010.37 1011.90 1013.17 1014.20 1014.99 1015.67 1016.02 1016.42 1016.70 1017.07 1017.17 1017.33 1017.56 1017.82 1017.89 1018.14 1018.53 1019.00 1019.50 1020.00 1020.57 1020.90 1021.27 1021.48 1021.45 1021.51 1021.53 1021.56 1021.64 1021.85 1021.79 1021.78 1021.63 1021.60 1021.54 1021.31
1004.42 1004.62 1004.40 1004.83 1005.53 1006.12 1007.12 1006.53 1006.41 1007.27 1007.95 1008.52 1009.05 1010.07 1011.50 1012.77 1014.08 1015.11 1015.92 1016.26 1016.50 1016.94 1017.20 1017.43 1017.76 1017.94 1018.30 1018.51 1018.69 1018.98 1019.44 1019.69 1020.29 1020.77 1021.10 1021.50 1021.63 1021.72 1021.88 1021.82 1022.01 1022.13 1022.07 1021.93 1021.82 1021.63 1021.79 1021.76 1021.73
1004.67 1005.13 1006.02 1005.91 1007.25 1006.65 1006.96 1007.17 1007.19 1007.58 1007.92 1008.64 1009.17 1010.09 1011.17 1012.45 1013.68 1014.75 1015.62 1016.04 1016.49 1016.93 1017.41 1017.66 1017.96 1018.32 1018.60 1018.77 1018.95 1019.40 1019.77 1020.02 1020.52 1021.01 1021.23 1021.44 1021.74 1021.82 1022.09 1022.15 1022.14 1022.29 1022.34 1022.25 1022.14 1022.02 1022.08 1021.92 1021.90
1004.31 1005.38 1006.03 1006.05 1006.53 1006.70 1007.17 1007.42 1006.98 1007.65 1008.04 1008.93 1009.45 1009.98 1010.93 1012.25 1013.33 1014.29 1015.22 1015.92 1016.56 1017.14 1017.68 1017.98 1018.21 1018.54 1018.87 1019.23 1019.26 1019.57 1019.99 1020.26 1020.54 1020.82 1021.10 1021.35 1021.69 1021.86 1022.00 1022.09 1022.13 1022.26 1022.36 1022.35 1022.55 1022.33 1022.28 1022.15 1022.05
1005.30 1005.47 1006.42 1006.82 1007.00 1006.58 1007.23 1007.77 1008.76 1008.86 1009.04 1009.10 1009.44 1010.24 1011.03 1011.82 1012.79 1013.81 1014.51 1015.35 1016.26 1017.00 1017.51 1017.94 1018.25 1018.65 1018.89 1019.05 1019.37 1019.63 1020.07 1020.39 1020.68 1020.92 1021.20 1021.45 1021.64 1021.76 1021.90 1021.94 1022.10 1022.23 1022.43 1022.42 1022.35 1022.38 1022.31 1022.30 1022.32
1005.06 1005.32 1005.58 1006.10 1007.42 1007.93 1008.01 1008.77 1010.08 1010.39 1010.45 1010.33 1010.27 1010.60 1011.05 1011.73 1012.80 1013.60 1014.41 1015.24 1015.98 1016.61 1017.11 1017.63 1018.12 1018.42 1018.69 1019.11 1019.40 1019.64 1019.99 1020.34 1020.61 1020.90 1021.20 1021.41 1021.63 1021.80 1021.89 1022.02 1022.14 1022.34 1022.42 1022.49 1022.42 1022.34 1022.26 1022.30 1022.28
Thickness
5801 5802 5804 5804 5783 5782 5776 5786 5799 5794 5799 5814 5819 5814 5811 5814 5807 5790 5809 5811 5809 5802 5795 5787 5784 5783 5783 5781 5780 5779 5776 5773 5770 5768 5765 5763 5761 5760 5760 5758 5756 5754 5753 5753 5752 5750 5749 5749 5748
5801 5802 5801 5790 5775 5766 5779 5794 5794 5804 5808 5817 5817 5817 5812 5802 5808 5801 5802 5806 5806 5800 5792 5786 5781 5780 5779 5778 5778 5775 5772 5769 5768 5765 5763 5761 5759 5757 5756 5756 5754 5753 5753 5750 5750 5750 5748 5748 5747
5799 5800 5790 5781 5771 5775 5778 5793 5799 5806 5815 5813 5813 5823 5813 5798 5801 5802 5809 5806 5801 5796 5791 5783 5778 5777 5776 5774 5773 5772 5770 5766 5764 5764 5761 5759 5757 5756 5753 5752 5752 5750 5750 5750 5749 5748 5747 5746 5745
5793 5791 5781 5770 5773 5783 5787 5795 5803 5806 5813 5817 5816 5806 5809 5806 5803 5805 5805 5802 5797 5793 5790 5782 5776 5774 5773 5771 5769 5767 5767 5765 5761 5760 5759 5757 5755 5753 5751 5750 5749 5750 5747 5747 5747 5746 5745 5743 5743
5789 5782 5767 5764 5769 5781 5792 5798 5804 5803 5808 5810 5817 5802 5798 5797 5803 5802 5798 5797 5794 5789 5785 5781 5776 5773 5771 5768 5766 5763 5763 5762 5759 5757 5754 5753 5753 5750 5748 5748 5747 5748 5746 5744 5744 5743 5742 5740 5740
5775 5775 5762 5766 5769 5777 5795 5805 5803 5803 5808 5810 5808 5806 5798 5797 5796 5795 5797 5793 5790 5786 5782 5777 5774 5771 5769 5766 5762 5760 5758 5757 5757 5753 5751 5750 5748 5746 5746 5745 5744 5744 5742 5741 5739 5739 5740 5738 5737
5772 5767 5768 5764 5768 5772 5791 5806 5802 5807 5810 5809 5820 5802 5797 5796 5796 5794 5793 5791 5787 5783 5779 5774 5771 5768 5765 5762 5759 5757 5755 5752 5751 5750 5748 5747 5746 5742 5741 5742 5741 5742 5740 5737 5736 5736 5735 5737 5736
5770 5768 5757 5765 5766 5771 5790 5795 5806 5811 5813 5827 5828 5804 5800 5801 5796 5790 5790 5787 5785 5781 5777 5773 5769 5767 5764 5759 5756 5754 5752 5749 5748 5745 5745 5743 5742 5741 5739 5739 5739 5737 5737 5735 5734 5735 5734 5734 5736
5765 5758 5763 5768 5763 5776 5786 5786 5803 5818 5814 5819 5822 5818 5819 5806 5796 5787 5783 5781 5776 5775 5775 5773 5771 5767 5764 5760 5755 5752 5750 5746 5745 5743 5740 5739 5741 5739 5737 5738 5735 5734 5732 5733 5731 5732 5733 5732 5732
5760 5758 5766 5775 5780 5777 5777 5781 5792 5799 5803 5807 5806 5805 5806 5799 5792 5786 5781 5777 5773 5772 5771 5771 5769 5765 5762 5758 5754 5752 5749 5746 5743 5743 5739 5738 5738 5736 5735 5734 5732 5731 5731 5727 5728 5728 5729 5731 5733
5757 5762 5764 5769 5774 5774 5771 5778 5790 5794 5795 5808 5810 5798 5798 5794 5788 5784 5781 5779 5775 5772 5768 5767 5765 5761 5761 5757 5754 5751 5749 5745 5742 5739 5736 5735 5735 5733 5732 5732 5732 5731 5730 5730 5726 5727 5729 5731 5731
5745 5759 5761 5769 5768 5767 5768 5776 5779 5794 5803 5813 5808 5806 5804 5796 5791 5785 5779 5776 5773 5770 5766 5765 5762 5759 5758 5755 5753 5750 5747 5744 5741 5738 5734 5733 5731 5730 5729 5731 5729 5729 5728 5729 5727 5728 5727 5726 5727
5739 5753 5760 5762 5764 5763 5767 5769 5772 5789 5805 5808 5803 5796 5800 5795 5789 5783 5777 5773 5770 5768 5765 5760 5758 5755 5753 5750 5749 5746 5744 5740 5739 5736 5734 5732 5730 5729 5728 5728 5728 5728 5727 5727 5726 5725 5726 5727 5725
5746 5749 5754 5757 5760 5760 5763 5769 5771 5786 5797 5795 5796 5794 5795 5792 5785 5777 5771 5768 5764 5763 5761 5758 5754 5752 5751 5749 5746 5743 5739 5736 5734 5734 5733 5730 5728 5727 5726 5725 5726 5726 5726 5727 5726 5724 5723 5724 5724
5743 5736 5744 5754 5759 5760 5765 5758 5768 5784 5789 5786 5785 5786 5788 5785 5781 5774 5771 5766 5761 5758 5756 5751 5749 5748 5747 5746 5742 5738 5735 5734 5732 5732 5729 5728 5727 5725 5724 5724 5724 5723 5724 5725 5724 5723 5722 5721 5722
5728 5731 5731 5761 5758 5762 5760 5755 5766 5781 5782 5779 5779 5780 5781 5778 5776 5773 5769 5764 5759 5756 5752 5748 5747 5745 5744 5741 5737 5734 5734 5732 5731 5729 5727 5725 5724 5723 5722 5722 5721 5720 5718 5719 5721 5720 5721 5720 5720
5721 5721 5728 5746 5752 5753 5751 5755 5759 5772 5774 5772 5773 5774 5770 5765 5760 5759 5763 5763 5759 5756 5752 5747 5746 5743 5741 5737 5733 5732 5731 5729 5729 5727 5725 5722 5720 5719 5718 5719 5717 5713 5714 5714 5714 5716 5713 5714 5713
5717 5721 5731 5736 5740 5747 5744 5745 5753 5763 5766 5763 5763 5763 5759 5755 5747 5748 5750 5754 5756 5751 5750 5748 5743 5741 5736 5732 5730 5728 5726 5724 5725 5724 5722 5719 5718 5716 5715 5715 5712 5709 5709 5711 5709 5707 5708 5704 5703
5725 5725 5726 5734 5742 5744 5747 5737 5739 5747 5755 5753 5754 5752 5748 5742 5741 5741 5741 5745 5747 5747 5746 5743 5739 5737 5733 5729 5727 5725 5723 5721 5721 5719 5717 5715 5713 5713 5712 5710 5707 5704 5702 5700 5700 5700 5697 5695 5695
5718 5719 5724 5723 5730 5738 5732 5724 5727 5735 5742 5748 5745 5744 5741 5736 5735 5735 5734 5737 5739 5739 5737 5736 5735 5730 5728 5726 5723 5723 5723 5722 5718 5713 5713 5709 5705 5706 5706 5703 5699 5696 5695 5694 5691 5686 5679 5680 5681
5716 5718 5719 5724 5721 5724 5727 5713 5717 5720 5727 5732 5735 5736 5733 5733 5730 5728 5728 5728 5729 5728 5727 5726 5724 5724 5723 5722 5719 5716 5713 5710 5709 5706 5704 5701 5699 5698 5696 5691 5690 5691 5690 5689 5688 5683 5681 5677 5672
5709 5730 5726 5722 5720 5711 5723 5710 5708 5716 5717 5722 5726 5728 5729 5725 5723 5722 5721 5723 5722 5719 5719 5719 5718 5717 5717 5718 5716 5712 5713 5705 5700 5698 5694 5690 5689 5690 5689 5688 5683 5680 5679 5677 5675 5674 5673 5671 5667
5719 5727 5724 5722 5717 5720 5713 5718 5718 5710 5714 5722 5727 5727 5729 5726 5719 5717 5716 5714 5712 5713 5713 5711 5711 5710 5711 5711 5711 5707 5701 5696 5692 5689 5685 5681 5680 5679 5678 5675 5671 5671 5671 5670 5667 5667 5665 5664 5662
5718 5716 5711 5708 5715 5707 5704 5711 5711 5714 5731 5735 5730 5727 5726 5720 5714 5713 5709 5704 5703 5703 5702 5703 5704 5703 5702 5702 5701 5699 5695 5689 5684 5681 5678 5673 5669 5668 5667 5664 5663 5660 5658 5657 5656 5655 5656 5656 5655
5716 5711 5695 5692 5697 5697 5690 5702 5723 5731 5735 5741 5737 5728 5721 5714 5708 5702 5698 5698 5695 5694 5693 5692 5693 5692 5691 5691 5690 5687 5683 5678 5674 5669 5666 5663 5660 5659 5656 5654 5652 5650 5646 5645 5644 5643 5641 5640 5641
5706 5709 5703 5677 5684 5692 5686 5696 5721 5722 5724 5726 5730 5728 5719 5711 5702 5693 5687 5687 5687 5684 5683 5682 5680 5679 5678 5677 5676 5674 5671 5669 5664 5659 5657 5653 5651 5648 5645 5643 5639 5636 5634 5633 5632 5631 5629 5627 5626
5700 5699 5698 5685 5667 5688 5689 5699 5712 5716 5719 5715 5716 5714 5710 5703 5696 5687 5682 5681 5678 5675 5672 5671 5669 5667 5665 5664 5663 5660 5658 5656 5652 5648 5645 5643 5639 5637 5633 5631 5629 5625 5622 5621 5619 5618 5615 5616 5614
5715 5704 5691 5692 5669 5668 5679 5682 5707 5711 5714 5707 5704 5705 5704 5696 5691 5683 5678 5674 5669 5664 5661 5659 5658 5656 5654 5652 5652 5650 5646 5644 5641 5638 5634 5631 5627 5624 5622 5619 5616 5613 5609 5608 5604 5604 5602 5602 5601
5693 5695 5682 5685 5678 5681 5674 5685 5688 5696 5700 5704 5705 5699 5695 5691 5685 5678 5674 5669 5662 5657 5654 5650 5647 5645 5644 5643 5641 5639 5636 5633 5630 5626 5622 5618 5615 5613 5610 5608 5604 5601 5597 5595 5594 5592 5591 5589 5586
5695 5696 5697 5688 5665 5661 5674 5682 5672 5675 5681 5686 5693 5691 5691 5687 5679 5672 5667 5661 5656 5651 5648 5643 5639 5637 5636 5633 5631 5629 5626 5623 5620 5616 5611 5607 5604 5601 5598 5594 5592 5588 5586 5584 5583 5583 5582 5578 5575